Weather History for LIRA - May, 2013

Change the Weather History Date:

Thursday, May 23, 2013

  Actual Average Record
Temperature  
Mean Temperature 60 °F -  
Max Temperature 64 °F 79 °F 89 °F (2006)
Min Temperature 57 °F 57 °F 50 °F (1999)
Degree Days  
Heating Degree Days 4    
Growing Degree Days 10 (Base 50)    
Moisture  
Dew Point 57 °F    
Average Humidity 89    
Maximum Humidity 100    
Minimum Humidity 68    
Precipitation  
Precipitation 0.00 in 0.05 in - ()
Sea Level Pressure  
Sea Level Pressure 29.52 in    
Wind  
Wind Speed 5 mph ()    
Max Wind Speed 13 mph    
Max Gust Speed -    
Visibility 5.6 miles    
Events Rain , Thunderstorm    
Averages and records for this station are not official NWS values.
T = Trace of Precipitation, MM = Missing Value Source: Averaged Metar Reports

Daily Weather History Graph

Daily Weather History Graph

Search for Another Location

Airport or City:

Trip Planner

Search our weather history database for the weather conditions in past years. The results will help you decide how hot, cold, wet, or windy it might be!

Date:

Astronomy

May. 23, 2013 Rise Set
Actual Time 5:42 AM CEST 8:30 PM CEST
Civil Twilight 5:10 AM CEST 9:03 PM CEST
Nautical Twilight 4:29 AM CEST 9:44 PM CEST
Astronomical Twilight 3:41 AM CEST 10:32 PM CEST
Moon 6:41 PM CEST (5/23) 4:17 AM CEST (5/23)
Length of Visible Light 15h 53m
Length of Day
14h 47m
Waxing Gibbous, 95% of the Moon is Illuminated
May 23
Waxing Gibbous
May 25
Full
May 31
Last Quarter
Jun 8
New
Jun 16
First Quarter

Hourly Weather History & Observations

Time (CEST) Temp. Dew Point Humidity Pressure Visibility Wind Dir Wind Speed Gust Speed Precip Events Conditions
12:15 AM 60.8 °F 60.8 °F 100% 29.44 in 6.2 mi SSE 4.6 mph - N/A Rain , Thunderstorm Light Thunderstorms and Rain
12:45 AM 60.8 °F 60.8 °F 100% 29.44 in 6.2 mi SE 5.8 mph - N/A   Mostly Cloudy
1:15 AM 60.8 °F 60.8 °F 100% 29.44 in 6.2 mi East 3.5 mph - N/A Rain Light Rain
1:45 AM 60.8 °F 60.8 °F 100% 29.44 in 6.2 mi North 2.3 mph - N/A Rain Light Rain
2:45 AM 59.0 °F 59.0 °F 100% 29.44 in 6.2 mi WNW 1.2 mph - N/A Rain Light Rain
3:15 AM 59.0 °F 59.0 °F 100% 29.42 in 5.0 mi West 2.3 mph - N/A Rain Light Rain
3:45 AM 59.0 °F 59.0 °F 100% 29.42 in 5.0 mi Calm Calm - N/A Rain Light Rain
4:15 AM 59.0 °F 59.0 °F 100% 29.42 in 5.0 mi Calm Calm - N/A Rain Light Rain
4:45 AM 59.0 °F 57.2 °F 94% 29.42 in 5.0 mi Calm Calm - N/A Rain Light Rain
5:15 AM 57.2 °F 57.2 °F 100% 29.42 in 5.0 mi Calm Calm - N/A Rain Light Rain
5:45 AM 57.2 °F 57.2 °F 100% 29.42 in 3.7 mi Calm Calm - N/A Rain Light Rain
7:20 AM 57.2 °F 57.2 °F 100% - 3.7 mi North 3.5 mph - N/A Rain Light Rain
8:15 AM 57.2 °F 57.2 °F 100% 29.44 in 3.7 mi North 5.8 mph - N/A Rain Light Rain
9:15 AM 57.2 °F 55.4 °F 94% 29.47 in 3.7 mi North 4.6 mph - N/A Rain Light Rain
9:45 AM 57.2 °F 55.4 °F 94% 29.47 in 4.3 mi NNE 5.8 mph - N/A Rain Light Rain
10:15 AM 59.0 °F 57.2 °F 94% 29.47 in 5.0 mi North 3.5 mph - N/A   Partly Cloudy
10:45 AM 59.0 °F 59.0 °F 100% 29.47 in 5.0 mi NNW 2.3 mph - N/A   Scattered Clouds
11:15 AM 59.0 °F 59.0 °F 100% 29.50 in 5.6 mi NNW 3.5 mph - N/A   Scattered Clouds
11:45 AM 60.8 °F 57.2 °F 88% 29.50 in 5.6 mi North 5.8 mph - N/A   Scattered Clouds
12:15 PM 60.8 °F 57.2 °F 88% 29.50 in 5.6 mi NNW 6.9 mph - N/A   Scattered Clouds
12:45 PM 60.8 °F 57.2 °F 88% 29.50 in 5.6 mi NNW 8.1 mph - N/A   Scattered Clouds
1:15 PM 60.8 °F 57.2 °F 88% 29.50 in 5.6 mi NNW 10.4 mph - N/A   Scattered Clouds
1:45 PM 60.8 °F 55.4 °F 82% 29.50 in 5.6 mi NNW 11.5 mph - N/A   Scattered Clouds
2:15 PM 60.8 °F 55.4 °F 82% 29.50 in 6.2 mi NNW 11.5 mph - N/A   Scattered Clouds
2:45 PM 60.8 °F 55.4 °F 82% 29.53 in 6.2 mi NNW 12.7 mph - N/A   Scattered Clouds
3:15 PM 60.8 °F 55.4 °F 82% 29.53 in 6.2 mi NNW 11.5 mph - N/A   Scattered Clouds
3:45 PM 60.8 °F 55.4 °F 82% 29.53 in 6.2 mi NNW 11.5 mph - N/A Rain Light Rain
4:15 PM 60.8 °F 55.4 °F 82% 29.53 in 6.2 mi NNW 12.7 mph - N/A Rain Light Rain
4:45 PM 62.6 °F 55.4 °F 77% 29.56 in 6.2 mi NNW 12.7 mph - N/A Rain Light Rain
5:15 PM 62.6 °F 55.4 °F 77% 29.56 in 6.2 mi NNW 11.5 mph - N/A   Scattered Clouds
5:45 PM 62.6 °F 53.6 °F 72% 29.59 in 6.2 mi NNW 12.7 mph - N/A   Scattered Clouds
6:15 PM 64.4 °F 53.6 °F 68% 29.59 in 6.2 mi NNW 9.2 mph - N/A   Scattered Clouds
6:45 PM 62.6 °F 53.6 °F 72% 29.59 in 6.2 mi WNW 6.9 mph - N/A   Scattered Clouds
7:15 PM 62.6 °F 53.6 °F 72% 29.59 in 6.2 mi WNW 6.9 mph - N/A   Scattered Clouds
7:45 PM 64.4 °F 57.2 °F 77% 29.59 in 6.2 mi WNW 8.1 mph - N/A   Scattered Clouds
8:15 PM 64.4 °F 55.4 °F 73% 29.59 in 6.2 mi West 5.8 mph - N/A   Scattered Clouds
8:45 PM 62.6 °F 57.2 °F 82% 29.62 in 6.2 mi West 4.6 mph - N/A   Scattered Clouds
9:15 PM 60.8 °F 57.2 °F 88% 29.62 in 6.2 mi SW 2.3 mph - N/A   Partly Cloudy
9:45 PM 60.8 °F 59.0 °F 94% 29.65 in 6.2 mi SW 3.5 mph - N/A   Partly Cloudy
10:15 PM 60.8 °F 57.2 °F 88% 29.65 in 6.2 mi SW 2.3 mph - N/A   Scattered Clouds
10:45 PM 60.8 °F 59.0 °F 94% 29.68 in 6.2 mi South 3.5 mph - N/A   Partly Cloudy
11:15 PM 59.0 °F 57.2 °F 94% 29.68 in 6.2 mi SSE 4.6 mph - N/A   Partly Cloudy
11:45 PM 59.0 °F 59.0 °F 100% 29.68 in 6.2 mi South 5.8 mph - N/A   Partly Cloudy